Location: *
(29.9350°N, 52.8900°E)
Time: 05:40:01
(UTC+00:00)

Daily predictions for brighter satellites

Satellite Brightness Start Highest point End
(mag) Time Altitude Azimuth Time Altitude Azimuth Time Altitude Azimuth
Meteor 1-4 Rocket 3.9 00:05:27 39° NE 00:05:27 39° NE 00:08:01 10° NNE
Cosmos 1674 Rocket 4.4 00:05:27 38° SE 00:06:34 47° E 00:10:46 10° NNE
ATLAS 3B R/B 2.5 00:06:03 61° WSW 00:07:01 70° WNW 00:13:39 10° NNE
ADEOS 4.4 00:03:31 10° NNE 00:08:33 48° E 00:11:53 20° SSE
USA 267 4.3 00:04:55 10° NNE 00:10:16 28° NW 00:11:31 26° NW
PAYLOAD A 4.5 00:10:19 10° NNE 00:15:35 61° E 00:18:41 24° S
deb Chang Zheng 4 4.4 00:11:41 10° N 00:14:40 39° NNW 00:14:40 39° NNW
Palapa 6 Rocket 4.3 00:21:55 24° SSE 00:21:55 24° SSE 00:24:23 10° ESE
COSMOS 2441 4.2 00:21:23 10° N 00:26:09 71° WNW 00:27:07 54° SW
Cosmos 2263 Rocket 2.4 00:23:21 27° S 00:26:31 71° ESE 00:32:10 10° NNE
Cosmos 494 Rocket 3.9 00:24:25 10° NNW 00:29:43 82° WSW 00:34:57 10° SSE
ATLAS 5 CENTAUR R/B 2.4 00:29:59 36° SW 00:32:26 71° WNW 00:35:30 10° NNE
Cosmos 1092 Rocket 4.0 00:27:06 10° S 00:33:27 88° E 00:39:48 10° N
Cosmos 1300 Rocket 3.3 00:31:06 10° N 00:35:23 71° W 00:37:42 26° S
Cosmos 1867 3.7 00:35:42 42° WSW 00:37:14 56° WNW 00:42:36 10° NNE
Cosmos 1437 Rocket 3.9 00:40:06 10° SSE 00:44:01 46° E 00:47:55 10° NNE
Cosmos 2026 Rocket 4.1 00:38:34 10° S 00:44:41 78° E 00:50:45 10° N
Okean 2 Rocket 3.4 00:40:33 10° NNW 00:44:48 42° W 00:45:39 38° WSW
Cosmos 1378 Rocket 3.4 00:42:39 25° SSW 00:45:09 76° W 00:49:31 10° N
Cosmos 2151 Rocket 3.5 00:41:56 10° NNW 00:46:17 64° W 00:50:36 10° S
EPKM 3.3 00:46:41 24° S 00:46:46 24° S 00:48:48 10° ESE
Cosmos 1689 Rocket 2.6 00:44:11 10° SSE 00:47:08 61° ENE 00:50:06 10° N
Nadezhda 4 Rocket 4.4 00:44:52 29° SW 00:47:25 41° W 00:53:21 10° NNW
PSLV R/B 4.1 00:43:47 10° N 00:47:51 38° WNW 00:48:36 35° W
Cosmos 1269 Rocket 3.9 00:44:57 10° NNW 00:50:16 77° WSW 00:55:32 10° S
Shenzhou-11 Module 2.0 00:50:37 51° N 00:50:37 51° N 00:52:52 10° NE
Timation 1 Rocket 4.4 00:48:43 25° SW 00:52:12 58° WNW 00:58:07 10° NNE
Cosmos 1428 Rocket 4.5 00:48:30 10° S 00:54:36 85° E 01:00:47 10° N
Cosmos 1356 3.7 00:51:33 10° NNW 00:54:46 40° W 00:54:54 40° W
Delta 142 4.0 00:53:08 26° W 00:56:29 77° S 01:01:15 10° E
CENTAUR R/B 4.2 00:59:00 12° WNW 01:01:13 15° NW 01:04:43 10° N
SWIFT 3.9 01:00:12 19° SSW 01:01:19 20° S 01:04:30 10° SE
Chandra Rocket (1) 3.8 00:50:22 19° W 01:03:22 81° S 01:08:26 10° E
Meteor 1-31 Rocket 2.7 01:02:25 10° NNE 01:06:21 88° ESE 01:10:14 10° SSW
ALOS 2.9 01:11:41 10° NNE 01:16:16 58° E 01:20:52 10° S
Lacrosse 4 Rocket 4.2 01:13:22 10° SSE 01:16:22 19° ESE 01:19:26 10° ENE
Meteor PRIRODA 4.3 01:12:46 10° NNE 01:16:24 58° E 01:20:01 10° S
Cosmos 1943 4.2 01:13:07 10° N 01:18:40 51° ENE 01:24:10 10° SE
STARLINK-1194 4.5 01:17:58 10° SSW 01:20:46 31° SE 01:23:34 10° ENE
H-2A R/B 2.2 01:18:40 10° N 01:22:39 86° WNW 01:26:30 10° SSW
Lacrosse 5 3.0 01:23:43 10° SSW 01:28:29 43° ESE 01:33:15 10° NE
Cosmos 1975 Rocket 3.0 01:24:11 10° S 01:28:30 74° W 01:32:52 10° N
FENGYUN 3A 3.8 01:24:45 10° NNE 01:30:09 82° ESE 01:35:31 10° S
Okean 2 3.3 01:26:07 10° SSW 01:30:13 70° W 01:34:19 10° N
Cosmos 1553 Rocket 4.4 01:24:18 10° N 01:30:38 74° E 01:37:01 10° S
STARLINK-1163 4.1 01:27:16 10° SSW 01:30:46 50° SE 01:34:17 10° NE
Okean 1 Rocket 3.4 01:27:09 10° NNW 01:31:20 44° W 01:35:30 10° SSW
CZ-4B R/B 3.5 01:31:44 11° W 01:31:44 11° W 01:32:28 10° WNW
SJ-12 4.1 01:27:56 10° NNE 01:32:01 76° ESE 01:36:03 10° S
CZ-2C R/B 3.6 01:31:35 10° NNW 01:34:56 20° WNW 01:38:18 10° WSW
STARLINK-1168 3.9 01:32:36 10° SSW 01:35:58 51° SE 01:39:22 10° NE
Cosmos 1766 3.5 01:32:10 10° N 01:36:02 75° E 01:39:52 10° S
STARLINK-1164 3.8 01:34:12 10° SSW 01:37:36 54° SE 01:41:01 10° NE
STARLINK-1182 3.8 01:35:49 10° SSW 01:39:15 57° SE 01:42:41 10° NE
COSMO-SKYMED 1 3.4 01:36:48 10° SSE 01:41:02 57° ENE 01:45:17 10° N
GPS 2-14 Rocket1 4.5 01:38:09 10° SW 01:41:14 21° S 01:44:17 10° SE
DELTA 2 R/B(2) 3.7 01:41:06 10° WSW 01:42:51 62° NNW 01:46:16 10° ENE
STARLINK-1172 3.6 01:39:24 10° SSW 01:42:52 63° SE 01:46:21 10° NE
PSLV R/B 4.4 01:38:54 10° S 01:42:52 41° W 01:46:52 10° NNW
SL-16 R/B 3.6 01:40:25 10° WNW 01:43:28 15° W 01:46:32 10° SW
STARLINK-1145 3.5 01:41:07 10° SSW 01:44:34 68° SE 01:48:04 10° NE
STARLINK-1161 3.4 01:42:49 10° SW 01:46:18 71° SE 01:49:48 10° NE
CRYOSAT 2 4.5 01:41:38 10° N 01:46:23 56° W 01:51:07 10° SSW
STARLINK-1160 3.4 01:44:32 10° SW 01:48:02 75° SE 01:51:33 10° NE
GP-B 3.8 01:43:47 10° N 01:48:10 60° E 01:52:31 10° S
Cosmos 1844 Rocket 3.1 01:43:01 10° S 01:48:36 71° ESE 01:54:14 10° NNE
STARLINK-43 4.0 01:45:02 10° NW 01:48:40 60° NE 01:52:18 10° SE
Cosmos 1842 3.3 01:46:21 10° SSW 01:50:09 57° W 01:54:00 10° N
